Flight Track Log - Related Links

Times and Time Zones

All times are in EDT time to prevent confusion due to time zone crossing. See the GJS3657 flight status page for this flight to view local times or setup timezone preferences in your user account.

Time Position Orientation Groundspeed Altitude Reporting Facility
EDT Latitude Longitude Course Direction KTS MPH feet Rate Location/Type
Thu 12:47:41 PM 39.9333 -104.6333 75° East 206 237 7,800  Level Denver TRACON
Thu 12:48:41 PM 39.9500 -104.5500 75° East 264 304 8,900 1,450 Climbing Denver TRACON
Thu 12:49:41 PM 39.9500 -104.4500 90° East 280 322 10,700 1,550 Climbing Denver TRACON
Thu 12:50:41 PM 39.9500 -104.3500 90° East 280 322 12,000 684 Climbing Denver TRACON
Thu 12:51:35 PM 39.9500 -104.2667 90° East 274 315 12,000  Level Denver TRACON
Thu 12:52:22 PM 39.9508 -104.1911 89° East 268 308 12,000  Level Denver Center
Thu 12:53:24 PM 39.9497 -104.0861 91° East 270 311 12,000  Level Denver Center
Thu 12:54:26 PM 39.9386 -103.9869 98° East 281 323 12,000  Level Denver Center
Thu 12:55:28 PM 39.8728 -103.9783 174° South 231 266 12,000  Level Denver Center
Thu 12:56:30 PM 39.8200 -104.0108 205° Southwest 218 251 12,000  Level Denver Center
Thu 12:57:32 PM 39.7697 -104.0669 221° Southwest 223 257 12,000 -194 Level Denver Center
Thu 12:58:34 PM 39.7214 -104.1206 220° Southwest 227 261 11,600 -480 Descending Denver Center
Thu 12:59:37 PM 39.6678 -104.1842 222° Southwest 243 280 11,000 -286 Descending Denver Center
Thu 01:00:40 PM 39.6244 -104.2356 222° Southwest 215 247 11,000  Level Denver Center
Thu 01:01:42 PM 39.6544 -104.2892 306° West 239 275 11,000  Level Denver Center
Thu 01:02:56 PM 39.7303 -104.2872 North 271 312 11,000  Level Denver Center
Thu 01:03:58 PM 39.7514 -104.1986 73° East 266 306 11,000  Level Denver Center
Thu 01:05:00 PM 39.6856 -104.1892 174° South 221 254 11,000  Level Denver Center
Thu 01:06:02 PM 39.6378 -104.1878 179° South 221 254 11,000  Level Denver Center
Thu 01:07:04 PM 39.5628 -104.2114 194° South 240 276 11,000  Level Denver Center
Thu 01:08:06 PM 39.5728 -104.3006 278° West 256 295 11,000  Level Denver Center
Thu 01:09:09 PM 39.5892 -104.3928 283° West 261 300 11,000  Level Denver Center
Thu 01:10:11 PM 39.6086 -104.4931 284° West 265 305 11,000 -387 Level Denver Center
Thu 01:11:13 PM 39.6264 -104.5789 285° West 248 285 10,200 -1,161 Descending Denver Center
Thu 01:12:15 PM 39.6525 -104.6675 291° West 257 296 8,600 -1,161 Descending Denver Center
Thu 01:13:17 PM 39.7133 -104.6975 339° North 236 272 7,800 -919 Descending Denver Center
Thu 01:14:19 PM 39.7731 -104.6975 360° North 199 229 6,700 -919 Descending Denver Center
Thu 01:15:21 PM 39.8239 -104.6969 360° North 186 214 5,900 -677 Descending Denver Center
Thu 01:16:23 PM 39.8714 -104.6964 North 152 175 5,300 -581 Descending Denver Center
Thu 01:18:00 PM 39.9688 -104.5102 80° East  Level Estimated
Thu 01:25:00 PM 39.6489 -104.2260 242° Southwest  Level FlightAware Approximate
Thu 01:26:00 PM 39.5980 -104.3481 242° Southwest  Level FlightAware Approximate
Thu 01:27:00 PM 39.6276 -104.3031 54° Northeast  Level FlightAware Approximate
Thu 01:28:00 PM 39.6898 -104.1901 54° Northeast  Level FlightAware Approximate
Thu 01:29:00 PM 39.7519 -104.0770 54° Northeast  Level FlightAware Approximate
Thu 01:30:00 PM 39.8313 -103.9854 38° Northeast  Level FlightAware Approximate
Thu 01:31:00 PM 39.9087 -103.8893 44° Northeast  Level FlightAware Approximate
Thu 01:32:00 PM 39.9877 -103.7956 37° Northeast  Level FlightAware Approximate
Thu 01:33:00 PM 40.0297 -103.6762 79° East  Level FlightAware Approximate
Thu 01:34:00 PM 40.0492 -103.5389 79° East  Level FlightAware Approximate
Thu 01:35:00 PM 40.0737 -103.4029 77° East  Level FlightAware Approximate
Thu 01:36:00 PM 40.0998 -103.2674 75° East  Level FlightAware Approximate
Thu 01:37:00 PM 40.1227 -103.1309 78° East  Level FlightAware Approximate
Thu 01:38:00 PM 40.1455 -102.9942 78° East  Level FlightAware Approximate
Thu 01:39:00 PM 40.1638 -102.8564 81° East  Level FlightAware Approximate
Thu 01:40:00 PM 40.1763 -102.7184 75° East  Level FlightAware Approximate
Thu 01:41:00 PM 40.2028 -102.5828 78° East  Level FlightAware Approximate
Thu 01:42:00 PM 40.2249 -102.4458 78° East  Level FlightAware Approximate
Thu 01:43:00 PM 40.2468 -102.3087 78° East  Level FlightAware Approximate
Thu 01:44:00 PM 40.2684 -102.1715 79° East  Level FlightAware Approximate
Thu 01:45:00 PM 40.2881 -102.0338 79° East  Level FlightAware Approximate
Thu 01:46:00 PM 40.3083 -101.8961 79° East  Level FlightAware Approximate
Thu 01:47:00 PM 40.3295 -101.7587 79° East  Level FlightAware Approximate
Thu 01:48:00 PM 40.3405 -101.6664 82° East  Level FlightAware Approximate
Thu 01:49:00 PM 40.3502 -101.5739 82° East  Level FlightAware Approximate
Thu 01:50:00 PM 40.3599 -101.4814 82° East  Level FlightAware Approximate
Thu 01:51:00 PM 40.3725 -101.3897 74° East  Level FlightAware Approximate
Thu 01:52:00 PM 40.3920 -101.2998 74° East  Level FlightAware Approximate
Thu 01:53:00 PM 40.4114 -101.2098 74° East  Level FlightAware Approximate
Thu 01:54:00 PM 40.4307 -101.1199 74° East  Level FlightAware Approximate
Thu 01:55:00 PM 40.4499 -101.0298 74° East  Level FlightAware Approximate
Thu 01:56:00 PM 40.4691 -100.9397 74° East  Level FlightAware Approximate
Thu 01:57:00 PM 40.4853 -100.8632 74° East  Level FlightAware Approximate
Thu 01:58:00 PM 40.5015 -100.7866 74° East  Level FlightAware Approximate
Thu 01:59:00 PM 40.5177 -100.7100 75° East  Level FlightAware Approximate
Thu 02:00:00 PM 40.5337 -100.6333 75° East  Level FlightAware Approximate
Thu 02:01:00 PM 40.5498 -100.5566 75° East  Level FlightAware Approximate
Thu 02:02:00 PM 40.5657 -100.4799 75° East  Level FlightAware Approximate
Thu 02:03:00 PM 40.5816 -100.4031 75° East  Level FlightAware Approximate
Thu 02:04:00 PM 40.5975 -100.3263 75° East  Level FlightAware Approximate
Thu 02:05:00 PM 40.6133 -100.2495 75° East  Level FlightAware Approximate
Thu 02:06:00 PM 40.6288 -100.1725 75° East  Level FlightAware Approximate
Thu 02:07:00 PM 40.6442 -100.0955 75° East  Level FlightAware Approximate
Thu 02:08:00 PM 40.6571 -100.0307 75° East  Level FlightAware Approximate
Thu 02:09:00 PM 40.6699 -99.9660 75° East  Level FlightAware Approximate
Thu 02:10:00 PM 40.6827 -99.9012 75° East  Level FlightAware Approximate
Thu 02:11:00 PM 40.6954 -99.8364 75° East  Level FlightAware Approximate
Thu 02:12:00 PM 40.7081 -99.7716 75° East  Level FlightAware Approximate
Thu 02:13:00 PM 40.7208 -99.7068 76° East  Level FlightAware Approximate
Thu 02:14:00 PM 40.7334 -99.6419 76° East  Level FlightAware Approximate
Thu 02:15:00 PM 40.7460 -99.5770 76° East  Level FlightAware Approximate
Thu 02:16:00 PM 40.7593 -99.5084 76° East  Level FlightAware Approximate
Thu 02:17:00 PM 40.7726 -99.4397 76° East  Level FlightAware Approximate
Thu 02:18:00 PM 40.7858 -99.3709 76° East  Level FlightAware Approximate
Thu 02:19:00 PM 40.7989 -99.3022 76° East  Level FlightAware Approximate
Thu 02:20:00 PM 40.8121 -99.2334 76° East  Level FlightAware Approximate
Thu 02:21:00 PM 40.8252 -99.1646 76° East  Level FlightAware Approximate
Thu 02:22:00 PM 40.8382 -99.0957 76° East  Level FlightAware Approximate
Thu 02:23:00 PM 40.8512 -99.0268 76° East  Level FlightAware Approximate
Thu 02:24:00 PM 40.8640 -98.9579 76° East  Level FlightAware Approximate
Thu 02:25:00 PM 40.8767 -98.8889 76° East  Level FlightAware Approximate
Thu 02:26:00 PM 40.8894 -98.8198 76° East  Level FlightAware Approximate
Thu 02:27:00 PM 40.9020 -98.7508 76° East  Level FlightAware Approximate
Thu 02:28:00 PM 40.9146 -98.6817 76° East  Level FlightAware Approximate
Thu 02:29:00 PM 40.9271 -98.6126 76° East  Level FlightAware Approximate
Thu 02:30:00 PM 40.9396 -98.5435 77° East  Level FlightAware Approximate
Thu 02:31:00 PM 40.9521 -98.4743 77° East  Level FlightAware Approximate
Thu 02:32:00 PM 40.9645 -98.4052 77° East  Level FlightAware Approximate
Thu 02:33:00 PM 40.9761 -98.3403 77° East  Level FlightAware Approximate
Thu 02:34:00 PM 40.9931 -98.2783 59° Northeast  Level FlightAware Approximate
Thu 02:35:00 PM 41.0189 -98.2211 59° Northeast  Level FlightAware Approximate
Thu 02:36:00 PM 41.0447 -98.1638 59° Northeast  Level FlightAware Approximate
Thu 02:37:00 PM 41.0705 -98.1065 59° Northeast  Level FlightAware Approximate
Thu 02:38:00 PM 41.0962 -98.0491 59° Northeast  Level FlightAware Approximate
Thu 02:39:00 PM 41.1220 -97.9917 59° Northeast  Level FlightAware Approximate
Thu 02:40:00 PM 41.1476 -97.9342 59° Northeast  Level FlightAware Approximate
Thu 02:41:00 PM 41.1733 -97.8767 59° Northeast  Level FlightAware Approximate
Thu 02:42:00 PM 41.1989 -97.8191 59° Northeast  Level FlightAware Approximate
Thu 02:43:00 PM 41.2239 -97.7610 60° Northeast  Level FlightAware Approximate
Thu 02:44:00 PM 41.2489 -97.7029 60° Northeast  Level FlightAware Approximate
Thu 02:45:00 PM 41.2738 -97.6447 60° Northeast  Level FlightAware Approximate
Thu 02:46:00 PM 41.2986 -97.5865 60° Northeast  Level FlightAware Approximate
Thu 02:47:00 PM 41.3246 -97.5291 59° Northeast  Level FlightAware Approximate
Thu 02:48:00 PM 41.3507 -97.4718 59° Northeast  Level FlightAware Approximate
Thu 02:49:00 PM 41.3767 -97.4144 59° Northeast  Level FlightAware Approximate
Thu 02:50:00 PM 41.4027 -97.3569 59° Northeast  Level FlightAware Approximate
Thu 02:51:00 PM 41.4286 -97.2994 59° Northeast  Level FlightAware Approximate
Thu 02:52:00 PM 41.4545 -97.2419 59° Northeast  Level FlightAware Approximate
Thu 02:53:00 PM 41.4804 -97.1843 59° Northeast  Level FlightAware Approximate
Thu 02:54:00 PM 41.5063 -97.1266 59° Northeast  Level FlightAware Approximate
Thu 02:55:00 PM 41.5321 -97.0689 59° Northeast  Level FlightAware Approximate
Thu 02:56:00 PM 41.5579 -97.0112 59° Northeast  Level FlightAware Approximate
Thu 02:57:00 PM 41.5837 -96.9534 59° Northeast  Level FlightAware Approximate
Thu 02:58:00 PM 41.6095 -96.8956 59° Northeast  Level FlightAware Approximate
Thu 02:59:00 PM 41.6352 -96.8377 59° Northeast  Level FlightAware Approximate
Thu 03:00:00 PM 41.6609 -96.7798 59° Northeast  Level FlightAware Approximate
Thu 03:01:00 PM 41.6866 -96.7218 59° Northeast  Level FlightAware Approximate
Thu 03:02:00 PM 41.7122 -96.6638 59° Northeast  Level FlightAware Approximate
Thu 03:03:00 PM 41.7378 -96.6058 59° Northeast  Level FlightAware Approximate
Thu 03:04:00 PM 41.7634 -96.5477 59° Northeast  Level FlightAware Approximate
Thu 03:05:00 PM 41.7889 -96.4895 59° Northeast  Level FlightAware Approximate
Thu 03:06:00 PM 41.8144 -96.4313 60° Northeast  Level FlightAware Approximate
Thu 03:07:00 PM 41.8399 -96.3731 60° Northeast  Level FlightAware Approximate
Thu 03:08:00 PM 41.8652 -96.3147 60° Northeast  Level FlightAware Approximate
Thu 03:09:00 PM 41.8904 -96.2561 60° Northeast  Level FlightAware Approximate
Thu 03:10:00 PM 41.9155 -96.1976 60° Northeast  Level FlightAware Approximate
Thu 03:11:00 PM 41.9406 -96.1389 60° Northeast  Level FlightAware Approximate
Thu 03:12:00 PM 41.9657 -96.0803 60° Northeast  Level FlightAware Approximate
Thu 03:13:00 PM 41.9908 -96.0216 60° Northeast  Level FlightAware Approximate
Thu 03:14:00 PM 42.0158 -95.9628 60° Northeast  Level FlightAware Approximate
Thu 03:15:00 PM 42.0408 -95.9040 60° Northeast  Level FlightAware Approximate
Thu 03:16:00 PM 42.0657 -95.8451 60° Northeast  Level FlightAware Approximate
Thu 03:17:00 PM 42.0907 -95.7862 60° Northeast  Level FlightAware Approximate
Thu 03:18:00 PM 42.1156 -95.7273 60° Northeast  Level FlightAware Approximate
Thu 03:19:00 PM 42.1404 -95.6683 60° Northeast  Level FlightAware Approximate
Thu 03:20:00 PM 42.1653 -95.6093 60° Northeast  Level FlightAware Approximate
Thu 03:21:00 PM 42.1901 -95.5502 60° Northeast  Level FlightAware Approximate
Thu 03:22:00 PM 42.2149 -95.4910 60° Northeast  Level FlightAware Approximate
Thu 03:23:00 PM 42.2396 -95.4318 61° Northeast  Level FlightAware Approximate
Thu 03:24:00 PM 42.2643 -95.3726 61° Northeast  Level FlightAware Approximate
Thu 03:25:00 PM 42.2890 -95.3133 61° Northeast  Level FlightAware Approximate
Thu 03:26:00 PM 42.3137 -95.2540 61° Northeast  Level FlightAware Approximate
Thu 03:27:00 PM 42.3383 -95.1947 61° Northeast  Level FlightAware Approximate
Thu 03:28:00 PM 42.3629 -95.1353 61° Northeast  Level FlightAware Approximate
Thu 03:29:00 PM 42.3875 -95.0758 61° Northeast  Level FlightAware Approximate
Thu 03:30:00 PM 42.4120 -95.0163 61° Northeast  Level FlightAware Approximate
Thu 03:31:00 PM 42.4365 -94.9567 61° Northeast  Level FlightAware Approximate
Thu 03:32:00 PM 42.4610 -94.8971 61° Northeast  Level FlightAware Approximate
Thu 03:33:00 PM 42.4855 -94.8375 61° Northeast  Level FlightAware Approximate
Thu 03:34:00 PM 42.5099 -94.7778 61° Northeast  Level FlightAware Approximate
Thu 03:35:00 PM 42.5343 -94.7181 61° Northeast  Level FlightAware Approximate
Thu 03:36:00 PM 42.5586 -94.6583 61° Northeast  Level FlightAware Approximate
Thu 03:37:00 PM 42.5830 -94.5985 61° Northeast  Level FlightAware Approximate
Thu 03:38:00 PM 42.6072 -94.5386 61° Northeast  Level FlightAware Approximate
Thu 03:39:00 PM 42.6315 -94.4787 61° Northeast  Level FlightAware Approximate
Thu 03:40:00 PM 42.6557 -94.4187 61° Northeast  Level FlightAware Approximate
Thu 03:41:00 PM 42.6799 -94.3587 61° Northeast  Level FlightAware Approximate
Thu 03:42:00 PM 42.7041 -94.2986 61° Northeast  Level FlightAware Approximate
Thu 03:43:00 PM 42.7282 -94.2385 61° Northeast  Level FlightAware Approximate
Thu 03:44:00 PM 42.7523 -94.1784 61° Northeast  Level FlightAware Approximate
Thu 03:45:00 PM 42.7764 -94.1181 61° Northeast  Level FlightAware Approximate
Thu 03:46:00 PM 42.8004 -94.0579 61° Northeast  Level FlightAware Approximate
Thu 03:47:00 PM 42.8245 -93.9976 61° Northeast  Level FlightAware Approximate
Thu 03:48:00 PM 42.8484 -93.9373 62° Northeast  Level FlightAware Approximate
Thu 03:49:00 PM 42.8700 -93.8752 61° Northeast  Level FlightAware Approximate
Thu 03:50:00 PM 42.8941 -93.8149 61° Northeast  Level FlightAware Approximate
Thu 03:51:00 PM 42.9183 -93.7546 61° Northeast  Level FlightAware Approximate
Thu 03:52:00 PM 42.9424 -93.6943 61° Northeast  Level FlightAware Approximate
Thu 03:53:00 PM 42.9664 -93.6339 61° Northeast  Level FlightAware Approximate
Thu 03:54:00 PM 42.9884 -93.5720 64° Northeast  Level FlightAware Approximate
Thu 03:55:00 PM 43.0103 -93.5100 64° Northeast  Level FlightAware Approximate
Thu 03:56:00 PM 43.0322 -93.4480 64° Northeast  Level FlightAware Approximate
Thu 03:57:00 PM 43.0540 -93.3860 64° Northeast  Level FlightAware Approximate
Thu 03:58:00 PM 43.0786 -93.3261 56° Northeast  Level FlightAware Approximate
Thu 03:59:00 PM 43.1253 -93.3167 North  Level FlightAware Approximate
Thu 04:00:00 PM 43.1757 -93.3167 North  Level FlightAware Approximate
Thu 04:01:00 PM 43.2256 -93.3103 10° North  Level FlightAware Approximate
Thu 04:02:00 PM 43.2752 -93.2993 North  Level FlightAware Approximate
Thu 04:03:00 PM 43.3254 -93.2951 North  Level FlightAware Approximate
Thu 04:04:00 PM 43.3757 -93.2909 North  Level FlightAware Approximate
Thu 04:05:00 PM 43.4259 -93.2867 North  Level FlightAware Approximate
Thu 04:06:00 PM 43.4762 -93.2833 North  Level FlightAware Approximate
Thu 04:07:00 PM 43.5265 -93.2833 North  Level FlightAware Approximate
Thu 04:08:00 PM 43.5765 -93.2761 North  Level FlightAware Approximate
Thu 04:09:00 PM 43.6265 -93.2678 North  Level FlightAware Approximate
Thu 04:10:00 PM 43.6768 -93.2667 North  Level FlightAware Approximate
Thu 04:11:00 PM 43.7271 -93.2667 North  Level FlightAware Approximate
Thu 04:12:00 PM 43.7767 -93.2558 10° North  Level FlightAware Approximate
Thu 04:13:00 PM 43.8266 -93.2470 North  Level FlightAware Approximate
Thu 04:14:00 PM 43.8768 -93.2415 North  Level FlightAware Approximate
Thu 04:15:00 PM 43.9269 -93.2359 North  Level FlightAware Approximate
Thu 04:16:00 PM 43.9772 -93.2333 North  Level FlightAware Approximate
Thu 04:17:00 PM 44.0273 -93.2288 North  Level FlightAware Approximate
Thu 04:18:00 PM 44.0773 -93.2205 North  Level FlightAware Approximate
Thu 04:19:00 PM 44.1274 -93.2167 North  Level FlightAware Approximate
Thu 04:20:00 PM 44.1778 -93.2167 North  Level FlightAware Approximate
Thu 04:21:00 PM 44.2281 -93.2167 North  Level FlightAware Approximate
Thu 04:22:00 PM 44.2784 -93.2147 North  Level FlightAware Approximate
Thu 04:23:00 PM 44.3283 -93.2064 North  Level FlightAware Approximate
Thu 04:24:00 PM 44.3783 -93.1983 North  Level FlightAware Approximate
Thu 04:25:00 PM 44.4284 -93.1912 North  Level FlightAware Approximate
Thu 04:26:00 PM 44.4785 -93.1840 North  Level FlightAware Approximate
Thu 04:27:00 PM 44.5287 -93.1813 North  Level FlightAware Approximate
Thu 04:28:00 PM 44.5787 -93.1730 North  Level FlightAware Approximate
Thu 04:29:00 PM 44.6285 -93.1696 350° North  Level FlightAware Approximate
Thu 04:30:00 PM 44.6781 -93.1820 350° North  Level FlightAware Approximate
Thu 04:31:00 PM 44.7279 -93.1922 352° North  Level FlightAware Approximate
Thu 04:32:00 PM 44.7777 -93.2022 352° North  Level FlightAware Approximate
Thu 04:33:00 PM 44.8275 -93.2122 352° North  Level FlightAware Approximate
Thu 04:34:00 PM 44.8667 -93.2167 North  Level FlightAware Approximate
Thu 04:35:00 PM 44.8820 -93.2218 North  Level Estimated
Thu 04:36:00 PM 44.8820 -93.2218 North  Level Estimated
Thu 04:37:00 PM 44.8820 -93.2218 North  Level Estimated
Thu 04:38:00 PM 44.8820 -93.2218 North  Level Estimated
Thu 04:39:00 PM 44.8820 -93.2218 North  Level Estimated
Thu 04:40:00 PM 44.8820 -93.2218 North  Level Estimated
Thu 04:41:00 PM 44.8820 -93.2218 North  Level Estimated
Thu 04:42:00 PM 44.8820 -93.2218 North  Level Estimated
Thu 04:43:00 PM 44.8820 -93.2218 North  Level Estimated
Thu 04:44:00 PM 44.8820 -93.2218 North  Level Estimated
Thu 04:45:00 PM 44.8820 -93.2218 North  Level Estimated
Thu 04:46:00 PM 44.8820 -93.2218 North  Level Estimated
Thu 04:47:00 PM 44.8820 -93.2218 North  Level Estimated
Thu 04:48:00 PM 44.8820 -93.2218 North  Level Estimated
Thu 04:49:00 PM 44.8820 -93.2218 North  Level Estimated
Thu 04:50:00 PM 44.8820 -93.2218 North  Level Estimated
Thu 04:51:00 PM 44.8820 -93.2218 North  Level Estimated
Thu 04:52:00 PM 44.8820 -93.2218 North  Level Estimated
Thu 04:53:00 PM 44.8820 -93.2218 North  Level Estimated
Thu 04:54:00 PM 44.8820 -93.2218 North  Level Estimated
Thu 04:55:00 PM 44.8820 -93.2218 North  Level Estimated
Thu 04:56:00 PM 44.8820 -93.2218 North  Level Estimated
Thu 04:57:00 PM 44.8820 -93.2218 North  Level Estimated
Thu 04:58:00 PM 44.8820 -93.2218 North  Level Estimated
Thu 04:59:00 PM 44.8820 -93.2218 North  Level Estimated
Thu 05:00:00 PM 44.8820 -93.2218 North  Level Estimated
Thu 05:01:00 PM 44.8820 -93.2218 North  Level Estimated

Login

Don't have an account? Register now (free) for customized features, flight alerts, and more!